| time (UTC) | temp F | wind direction | speed MPH | gust MPH | rain 1hr in | rain 24hr in | rain mn in | humidity % | barometer mb |
| 20260504150949 | 63 | 268 | 4.0 | 7.0 | 0.00 | 0.05 | 0.01 | 91 | 1011.4 |
| 20260504140951 | 66 | 304 | 2.0 | 6.0 | 0.00 | 0.05 | 0.01 | 82 | 1011.7 |
| 20260504080951 | 59 | 226 | 0.0 | 3.0 | 0.00 | 0.21 | 0.01 | 100 | 1012.4 |
| 20260504045951 | 53 | 153 | 0.0 | 1.0 | 0.00 | 0.21 | 0.01 | 100 | 1011.2 |
| 20260504044950 | 53 | 154 | 0.0 | 1.0 | 0.00 | 0.21 | 0.01 | 100 | 1011.2 |
| 20260504043952 | 53 | 0 | 0.0 | 0.0 | 0.00 | 0.21 | 0.01 | 100 | 1011.0 |
| 20260504042950 | 53 | 0 | 0.0 | 0.0 | 0.00 | 0.21 | 0.01 | 100 | 1010.9 |
| 20260504041950 | 53 | 0 | 0.0 | 0.0 | 0.00 | 0.21 | 0.01 | 100 | 1010.9 |
| 20260504035951 | 53 | 151 | 0.0 | 1.0 | 0.00 | 0.21 | 0.01 | 100 | 1011.1 |
| 20260504033950 | 53 | 147 | 0.0 | 1.0 | 0.00 | 0.21 | 0.01 | 100 | 1011.2 |
| 20260504032951 | 53 | 0 | 0.0 | 0.0 | 0.00 | 0.21 | 0.01 | 100 | 1011.2 |
| 20260504024951 | 52 | 0 | 0.0 | 0.0 | 0.00 | 0.21 | 0.01 | 100 | 1011.2 |
| 20260504023952 | 52 | 0 | 0.0 | 0.0 | 0.00 | 0.21 | 0.01 | 99 | 1011.0 |
| 20260504021951 | 52 | 113 | 0.0 | 1.0 | 0.00 | 0.21 | 0.01 | 99 | 1010.9 |
| 20260504015952 | 53 | 0 | 0.0 | 0.0 | 0.00 | 0.21 | 0.01 | 99 | 1011.1 |
| 20260504014951 | 53 | 0 | 0.0 | 0.0 | 0.00 | 0.21 | 0.01 | 99 | 1011.1 |
| 20260504013951 | 53 | 111 | 0.0 | 2.0 | 0.00 | 0.21 | 0.01 | 99 | 1011.0 |
| 20260504012951 | 53 | 111 | 1.0 | 3.0 | 0.00 | 0.21 | 0.01 | 99 | 1011.0 |
| 20260504011951 | 53 | 124 | 0.0 | 2.0 | 0.00 | 0.21 | 0.01 | 99 | 1011.0 |
| 20260504005952 | 53 | 0 | 0.0 | 0.0 | 0.00 | 0.21 | 0.01 | 99 | 1010.8 |
| 20260504004951 | 53 | 0 | 0.0 | 0.0 | 0.00 | 0.21 | 0.01 | 99 | 1010.8 |
| 20260504003951 | 53 | 0 | 0.0 | 0.0 | 0.00 | 0.21 | 0.01 | 99 | 1010.8 |
| 20260504002951 | 53 | 0 | 0.0 | 0.0 | 0.00 | 0.21 | 0.01 | 99 | 1010.8 |
| 20260504001952 | 52 | 0 | 0.0 | 0.0 | 0.00 | 0.21 | 0.01 | 99 | 1010.8 |
| 20260504000952 | 52 | 0 | 0.0 | 0.0 | 0.00 | 0.21 | 0.01 | 99 | 1010.8 |
| 20260503235952 | 52 | 0 | 0.0 | 0.0 | 0.00 | 0.21 | 0.01 | 98 | 1010.8 |
| 20260503234951 | 52 | 0 | 0.0 | 0.0 | 0.00 | 0.21 | 0.01 | 98 | 1010.8 |
| 20260503233951 | 53 | 0 | 0.0 | 0.0 | 0.00 | 0.21 | 0.01 | 98 | 1011.0 |
| 20260503232952 | 53 | 0 | 0.0 | 0.0 | 0.01 | 0.21 | 0.01 | 98 | 1011.0 |
| 20260503230952 | 54 | 178 | 0.0 | 1.0 | 0.01 | 0.21 | 0.01 | 98 | 1010.9 |
| 20260503225951 | 54 | 0 | 0.0 | 0.0 | 0.01 | 0.21 | 0.01 | 98 | 1011.0 |
| 20260503224952 | 54 | 0 | 0.0 | 0.0 | 0.01 | 0.21 | 0.01 | 98 | 1011.0 |
| 20260503223951 | 54 | 0 | 0.0 | 0.0 | 0.01 | 0.21 | 0.01 | 98 | 1010.9 |
| 20260503222952 | 55 | 0 | 0.0 | 0.0 | 0.00 | 0.20 | 0.00 | 98 | 1011.1 |
| 20260503221953 | 55 | 0 | 0.0 | 0.0 | 0.00 | 0.20 | 0.00 | 98 | 1011.1 |
| 20260503220951 | 55 | 178 | 0.0 | 1.0 | 0.00 | 0.20 | 0.00 | 98 | 1011.0 |
| 20260503215957 | 56 | 178 | 1.0 | 3.0 | 0.00 | 0.20 | 0.00 | 98 | 1010.9 |
| 20260503214952 | 56 | 173 | 2.0 | 4.0 | 0.00 | 0.21 | 0.20 | 98 | 1010.9 |
| 20260503213952 | 56 | 173 | 2.0 | 5.0 | 0.00 | 0.24 | 0.20 | 97 | 1010.8 |
| 20260503212952 | 56 | 168 | 2.0 | 3.0 | 0.00 | 0.24 | 0.20 | 98 | 1010.8 |
| 20260503211952 | 56 | 166 | 2.0 | 4.0 | 0.00 | 0.24 | 0.20 | 97 | 1010.8 |
| 20260503210952 | 57 | 155 | 1.0 | 3.0 | 0.00 | 0.24 | 0.20 | 97 | 1010.8 |
| 20260503203952 | 57 | 150 | 2.0 | 5.0 | 0.00 | 0.24 | 0.20 | 97 | 1010.8 |
| 20260503202951 | 57 | 154 | 2.0 | 5.0 | 0.00 | 0.24 | 0.20 | 97 | 1010.8 |
| 20260503201952 | 56 | 151 | 1.0 | 4.0 | 0.00 | 0.24 | 0.20 | 96 | 1010.8 |
| 20260503200952 | 56 | 150 | 1.0 | 3.0 | 0.00 | 0.24 | 0.20 | 96 | 1010.9 |
| 20260503195952 | 56 | 144 | 2.0 | 5.0 | 0.01 | 0.24 | 0.20 | 96 | 1010.8 |
| 20260503194951 | 56 | 137 | 1.0 | 4.0 | 0.01 | 0.24 | 0.20 | 96 | 1010.8 |
| 20260503192952 | 56 | 155 | 2.0 | 4.0 | 0.02 | 0.24 | 0.20 | 96 | 1010.8 |
| 20260503191952 | 56 | 166 | 2.0 | 4.0 | 0.02 | 0.24 | 0.20 | 95 | 1010.8 |
| 20260503190953 | 56 | 159 | 1.0 | 4.0 | 0.03 | 0.24 | 0.20 | 95 | 1010.7 |
| 20260503185952 | 56 | 184 | 1.0 | 3.0 | 0.03 | 0.24 | 0.20 | 94 | 1010.8 |
| 20260503183952 | 57 | 200 | 3.0 | 7.0 | 0.02 | 0.23 | 0.19 | 93 | 1010.7 |
| 20260503182952 | 57 | 195 | 4.0 | 7.0 | 0.02 | 0.23 | 0.19 | 92 | 1010.6 |
| 20260503180952 | 60 | 194 | 7.0 | 16.0 | 0.00 | 0.20 | 0.17 | 91 | 1009.9 |
| 20260503173952 | 61 | 171 | 8.0 | 12.0 | 0.00 | 0.20 | 0.17 | 92 | 1010.0 |
| 20260503171954 | 61 | 168 | 9.0 | 16.0 | 0.00 | 0.20 | 0.17 | 91 | 1009.8 |
| 20260503170952 | 61 | 169 | 7.0 | 12.0 | 0.00 | 0.20 | 0.17 | 91 | 1009.7 |